Tracking 28790 objects as of 18-Apr-2024
HD Live streaming from Space Station
objects crossing your sky now

DELTA 1 DEB

Track DELTA 1 DEB now!
10-day predictions


NORAD ID: 42642
Int'l Code: 1975-052MB
Perigee: 1,091.5 km
Apogee: 1,207.6 km
Inclination: 99.8 °
Period: 108.2 minutes
Semi major axis: 7520 km
RCS: Unknown
Launch date: June 12, 1975
Source: United States (US)
Launch site: AIR FORCE WESTERN TEST RANGE (AFWTR)

Note: This is SATELLITE DEBRIS
Your satellite tracking list
Your tracking list is empty




NASA's NSSDC Master Catalog

Two Line Element Set (TLE):
1 42642U 75052MB  24097.56546567  .00000115  00000-0  32426-3 0  9990
2 42642  99.8491 216.4418 0077145 127.4619 233.3554 13.31158590504392
Source of the keplerian elements: AFSPC